Oshkosh, WI

10:25 PM CST on November 16, 2019 (GMT -0600)
Wittman Regional

Weather History for KOSH - October, 2019

Change the Weather History Date:

Sunday, October 20, 2019

  Actual Average Record
Temperature  
Mean Temperature 53 °F -  
Max Temperature 60 °F 55 °F 85 °F (1953)
Min Temperature 46 °F 35 °F 15 °F (1952)
Degree Days  
Heating Degree Days 12    
Growing Degree Days 3 (Base 50)    
Moisture  
Dew Point 46 °F    
Average Humidity 88    
Maximum Humidity 97    
Minimum Humidity 62    
Precipitation  
Precipitation 0.00 in - - ()
Sea Level Pressure  
Sea Level Pressure 29.87 in    
Wind  
Wind Speed 5 mph (NW)    
Max Wind Speed 9 mph    
Max Gust Speed -    
Visibility 6 miles    
Events      
Averages and records for this station are not official NWS values.
T = Trace of Precipitation, MM = Missing Value Source: NWS Daily Summary

Daily Weather History Graph

Daily Weather History Graph

Search for Another Location

Airport or City:

Astronomy

Oct. 20, 2019 Rise Set
Actual Time 7:14 AM CDT 6:02 PM CDT
Civil Twilight 6:45 AM CDT 6:31 PM CDT
Nautical Twilight 6:11 AM CDT 7:05 PM CDT
Astronomical Twilight 5:38 AM CDT 7:38 PM CDT
Moon 11:03 PM CDT (10/20) 1:51 PM CDT (10/20)
Length of Visible Light 11h 46m
Length of Day
10h 47m
Waning Gibbous, 59% of the Moon is Illuminated
Oct 20
Waning Gibbous
Oct 21
Last Quarter
Oct 27
New
Nov 4
First Quarter
Nov 12
Full

Hourly Weather History & Observations

Time (CDT) Temp. Windchill Dew Point Humidity Pressure Visibility Wind Dir Wind Speed Gust Speed Precip Events Conditions
12:53 AM 50.0 °F - 48.0 °F 93% 29.75 in 6.0 mi WNW 8.1 mph - N/A   Overcast
1:08 AM 48.9 °F - 48.0 °F 97% 29.76 in 6.0 mi NW 9.2 mph - N/A   Overcast
1:32 AM 48.0 °F - 46.9 °F 96% 29.76 in 1.8 mi West 6.9 mph - N/A   Overcast
1:53 AM 46.9 °F - 46.0 °F 97% 29.77 in 1.2 mi WNW 8.1 mph - N/A   Overcast
2:06 AM 48.0 °F - 46.0 °F 93% 29.77 in 2.5 mi NW 6.9 mph - N/A   Overcast
2:13 AM 48.0 °F - 46.0 °F 93% 29.77 in 4.0 mi NW 5.8 mph - N/A   Overcast
2:53 AM 48.0 °F - 46.0 °F 93% 29.78 in 7.0 mi WNW 3.5 mph - N/A   Overcast
3:18 AM 48.0 °F - 46.0 °F 93% 29.79 in 7.0 mi WNW 8.1 mph - N/A   Overcast
3:53 AM 48.0 °F - 46.0 °F 93% 29.80 in 7.0 mi WNW 6.9 mph - N/A   Overcast
4:53 AM 48.0 °F - 46.0 °F 93% 29.81 in 8.0 mi WNW 6.9 mph - N/A   Overcast
5:33 AM 48.0 °F - 46.0 °F 93% 29.83 in 6.0 mi NW 3.5 mph - N/A   Overcast
5:53 AM 48.0 °F - 46.0 °F 93% 29.84 in 5.0 mi Calm Calm - N/A   Overcast
6:53 AM 48.0 °F - 46.0 °F 93% 29.85 in 5.0 mi West 3.5 mph - N/A   Overcast
7:40 AM 46.9 °F - 45.0 °F 93% 29.86 in 2.5 mi West 4.6 mph - N/A   Overcast
7:53 AM 46.9 °F - 45.0 °F 93% 29.88 in 2.0 mi NW 3.5 mph - N/A   Overcast
8:25 AM 46.9 °F - 46.0 °F 97% 29.88 in 1.5 mi West 5.8 mph - N/A   Overcast
8:39 AM 46.0 °F 44.8 °F 45.0 °F 96% 29.89 in 2.0 mi Variable 3.5 mph - N/A   Overcast
8:53 AM 46.9 °F - 45.0 °F 93% 29.91 in 3.0 mi West 4.6 mph - N/A   Overcast
9:53 AM 46.9 °F - 46.0 °F 97% 29.92 in 4.0 mi Calm Calm - N/A   Overcast
10:46 AM 48.0 °F - 46.0 °F 93% 29.92 in 6.0 mi Calm Calm - N/A   Overcast
10:53 AM 48.9 °F - 46.0 °F 90% 29.92 in 7.0 mi Calm Calm - N/A   Overcast
11:53 AM 50.0 °F - 46.0 °F 86% 29.94 in 10.0 mi WSW 4.6 mph - N/A   Overcast
12:53 PM 55.0 °F - 46.9 °F 74% 29.91 in 10.0 mi Variable 3.5 mph - N/A   Clear
1:53 PM 60.1 °F - 46.9 °F 62% 29.91 in 10.0 mi Variable 3.5 mph - N/A   Clear
2:53 PM 55.9 °F - 48.0 °F 75% 29.91 in 10.0 mi ENE 6.9 mph - N/A   Clear
3:53 PM 55.0 °F - 48.0 °F 77% 29.92 in 9.0 mi ENE 4.6 mph - N/A   Clear
4:53 PM 55.9 °F - 46.9 °F 72% 29.92 in 10.0 mi ENE 4.6 mph - N/A   Clear
5:53 PM 52.0 °F - 46.0 °F 80% 29.92 in 10.0 mi Calm Calm - N/A   Clear
6:53 PM 46.9 °F - 43.0 °F 86% 29.93 in 8.0 mi Calm Calm - N/A   Clear
7:53 PM 50.0 °F - 45.0 °F 83% 29.94 in 10.0 mi Calm Calm - N/A   Clear
8:53 PM 50.0 °F - 46.0 °F 86% 29.94 in 9.0 mi SE 4.6 mph - N/A   Clear
9:53 PM 50.0 °F - 45.0 °F 83% 29.93 in 10.0 mi ESE 5.8 mph - N/A   Clear
10:53 PM 51.1 °F - 43.0 °F 74% 29.91 in 10.0 mi East 6.9 mph - N/A   Clear
11:53 PM 48.9 °F - 42.1 °F 77% 29.91 in 10.0 mi East 4.6 mph - N/A   Clear